Regional Weather Roundup
Issued by NWS

Home | Current Version | Previous Version | Text Only | Print | Product List | Glossary On
Versions: 1 2 3 4 5 6 7 8 9 10 11 12 13 14 15 16 17 18 19 20 21 22 23 24 25 26 27 28 29 30 31 32 33 34 35 36 37 38 39 40 41 42 43 44 45 46 47 48 49 50
000
ASUS44 KLUB 041110
RWRTX
WEST TEXAS WEATHER ROUNDUP
NATIONAL WEATHER SERVICE LUBBOCK TX
500 AM CST WED MAR 04 2015

NOTE: "FAIR" INDICATES FEW OR NO CLOUDS BELOW 12,000 FEET WITH NO
SIGNIFICANT WEATHER AND/OR OBSTRUCTIONS TO VISIBILITY.

TXZ004-006>008-010-012-014-016-OKZ002-041200-
TEXAS PANHANDLE/OKLAHOMA PANHANDLE

CITY           SKY/WX    TMP DP  RH WIND       PRES   REMARKS
AMARILLO       CLOUDY    28  25  88 NE20      29.93R WCI  15
BORGER         CLOUDY    28  23  81 NE17      29.97R WCI  16
CANADIAN       CLOUDY    30  24  79 NE15G21   30.01R WCI  19
DALHART        CLOUDY    27  24  89 NE18      29.96R FOG     WCI  14
DUMAS          CLOUDY    25  24  96 NE16      29.96R FOG     WCI  12
GUYMON         CLOUDY    25  21  85 NE13      30.04R WCI  14
HEREFORD       CLOUDY    32  32  99 NE17      29.91R FOG     WCI  21
PAMPA          CLOUDY    26  23  86 NE17      29.98R WCI  13
PERRYTON         N/A     24  22  93 NE23      30.02R WCI   8
$$

TXZ026-029-035-045-048-041200-
SOUTHERN PANHANDLE/SOUTH PLAINS/ROLLING PLAINS

CITY           SKY/WX    TMP DP  RH WIND       PRES   REMARKS
CHILDRESS      CLOUDY    39  30  70 NE12      29.94R WCI  32
SEMINOLE       DRIZZLE   48  46  90 SW5       29.83S
LUBBOCK        CLOUDY    46  44  93 NE15      29.83R FOG
PLAINVIEW      FOG       40  39  97 NE15      29.86R VSB 1/2 WCI  31
SNYDER         CLOUDY    50  49  96 CALM      29.82S FOG
$$

TXZ052-054-060>062-072-078-127-140-154-169-041200-
PERMIAN BASIN/CONCHO VALLEY/BIG COUNTRY/EDWARDS PLATEAU

CITY           SKY/WX    TMP DP  RH WIND       PRES   REMARKS
ABILENE        CLOUDY    50  49  96 SE5       29.83R
BIG SPRING     CLOUDY    49  45  88 SE6       29.85R
BRADY          CLEAR     54  54 100 CALM      29.81F
BROWNWOOD      MOCLDY    52  52 100 CALM      29.84R FOG
JUNCTION       CLOUDY    54  53  97 CALM      29.80F
MIDLAND        CLOUDY    46  44  93 NW5       29.81F
ODESSA         CLOUDY    48  44  86 NW6       29.82S
SAN ANGELO     CLOUDY    54  51  90 S3        29.80F
SONORA           N/A     54  54 100 W6        29.87R
SWEETWATER     CLOUDY    53  53 100 S8        29.85R
WINK           MOCLDY    47  43  86 NE3       29.79F
$$

TXZ055-058-074-075-080-082-041200-
FAR WEST/SOUTHWEST MOUNTAINS/TRANS PECOS

CITY           SKY/WX    TMP DP  RH WIND       PRES   REMARKS
ALPINE         CLOUDY    45  42  90 SW3       29.92S
DRYDEN           N/A     52  51  97 NE6       29.81S
EL PASO        LGT RAIN  53  34  48 S13       29.84F
FORT STOCKTON  MOCLDY    49  45  86 W7        29.83F
MARFA          CLOUDY    45  41  87 N5        29.88R
PECOS          MOCLDY    45  43  93 S6        29.82R
PRESIDIO       FAIR      57  48  70 N7        29.78F
$$

TXZ014-016-019-021>030-083-041200
TEXAS TECH WEST TEXAS MESONET/TEXAS PANHANDLE/NORTHERN SOUTH PLAINS

CITY           SKY/WX    TMP DP  RH WIND       PRES   REMARKS
ABERNATHY 5ENE   N/A     41  40  97 NE10      29.88R
AMARILLO 9NNE    N/A     28  24  86 N13       29.96R WCI  18
AMARILLO 7SSE    N/A     28  26  94 NE16      29.95R WCI  16
AMHERST 1NE      N/A     44  42  91 NE7       29.85S
BOOTLEG 11WNW    N/A     30  29  97 NE12      29.91R WCI  20
CANADIAN 6E      N/A     27  21  79 N15       30.01R WCI  15
CAPROCK CYN SP   N/A     37  32  81 NE10      29.94R WCI  30
CHILDRESS 2NNE   N/A     38  30  74 NE13      29.94R WCI  30
CLARENDON 2WSW   N/A     31  26  82 N18       29.94S WCI  19
CLAUDE 12SW      N/A     28  27  95 N15       29.93R WCI  17
DIMMITT 2NE      N/A     34  33  99 N16       29.90R WCI  23
FLOYDADA 2NNE    N/A     36  36  99 NE14      29.88R WCI  27
FRIONA 2NE       N/A     32  31  98 NE14      29.91R WCI  22
GOODLETT 3W      N/A     39  29  69 N17       29.94R WCI  29
HART 3N          N/A     36  36  99 NE15      29.87R WCI  27
HEREFORD 2NW     N/A     31  31  99 N15       29.90R WCI  20
MCLEAN 1E        N/A     29  24  83 N17       29.94R WCI  17
MEMPHIS 1NE      N/A     37  29  73 N10       29.96R WCI  30
MULESHOE 2SSW    N/A     41  40  98 NE10      29.87R
OLTON 6S         N/A     41  39  94 NE16      29.86R
PALO DURO SP     N/A     29  27  90 N8        29.95R WCI  21
PAMPA 2E         N/A     26  23  90 N18       29.97R WCI  12
PLAINVIEW 1S     N/A     38  37  99 NE13      29.88R WCI  30
SILVERTON 7ESE   N/A     36  32  87 NE14      29.92R WCI  27
TULIA 2ENE       N/A     35  34  98 NE17      29.90R WCI  24
TURKEY 2WSW      N/A     38  32  77 NE14      29.93R WCI  30
UMBARGER 3NNE    N/A     28  27  96 NE17      29.93R WCI  16
$$

TXZ033>036-039>041-045>048-041200
TEXAS TECH WEST TEXAS MESONET/SOUTH PLAINS

CITY           SKY/WX    TMP DP  RH WIND       PRES   REMARKS
AIKEN 3WSW       N/A     37  37 100 NE17      29.90R WCI  27
ANDREWS 2NE      N/A     48  44  87 W2        29.82F
ANTON 6SSW       N/A     46  44  91 SW5       29.82S
BROWNFIELD 2S    N/A     48  44  87 W5        29.82F
DENVR CTY 7WNW   N/A     47  44  87 W5        29.82F
GAIL 2ESE        N/A     48  46  93 N1        29.81S
LAMESA 2SE       N/A     44  43  95 SW3       29.83S
LEVELLAND 4S     N/A     46  43  86 S8        29.82F
LUBBOCK 3WNW     N/A     51  44  77 CALM      29.83R
MORTON 1ENE      N/A     47  43  86 SW6       29.83R
ODONNELL 1N      N/A     47  45  92 W2        29.83R
PLAINS 3N        N/A     47  44  88 W5        29.83F
RALLS 1SE        N/A     40  40  99 E18       29.85F WCI  31
REESE CENTER     N/A     47  44  88 SW5       29.82S
SEAGRAVES 1SW    N/A     48  46  92 NW5       29.82S
SEMINOLE 2NNE    N/A     51  45  79 S6        29.81F
SLATON 2NE       N/A     48  45  88 E6        29.82F
SNYDER 3E        N/A     49  48  97 W2        29.81S
SUNDOWN 8SW      N/A     49  43  81 SW9       29.83S
TAHOKA 3NNE      N/A     48  46  90 S3        29.82S
WOLFFORTH 6SSW   N/A     48  47  99 SW7       29.82F
$$

TXZ031-032-036>038-042>044-041200-
TEXAS TECH WEST TEXAS MESONET/ROLLING PLAINS

CITY           SKY/WX    TMP DP  RH WIND       PRES   REMARKS
ASPERMONT 3NE    N/A     50  49  97 NE10      29.85R
FLUVANNA 3WNW    N/A     50  47  91 SW2       29.82R
GRAHAM 5SSW      N/A     50  47  89 CALM      29.82S
GUTHRIE 10WSW    N/A     41  40  95 N15       29.90R
HASKELL 1NW    LGT RAIN  49  48  97 N12       29.87R
JAYTON 1SSE      N/A     48  47  97 NE16      29.83F
KNOX CITY 3NW    N/A     43  40  89 NE15      29.89S
LK A HENRY 1NW   N/A     51  48  91 NE12      29.84R
NORTHFIELD 1S    N/A     40  33  77 NE12      29.94R WCI  33
ODELL 4ENE       N/A     37  32  82 N21       29.95S WCI  26
PADUCAH 10SW     N/A     40  35  84 N15       29.94R WCI  31
POST 1NE         N/A     52  49  89 NE10G20   29.84R
RRING SPRGS 3N   N/A     38  37  97 NE12      29.89F WCI  30
SEYMOUR 3NW    LGT RAIN  42  40  93 N16       29.90S
SPUR 1W          N/A     42  40  93 N17       29.87R
WEINERT 2NNE     N/A     43  42  95 N14       29.89R
WHITE RVR 6NE    N/A     43  42  95 N17       29.86R
$$

TXZ052-054-060>062-072-078-127-140-154-169-041200-
TEXAS TECH WEST TEXAS MESONET/PERMIAN BASIN/
CONCHO VALLEY/BIG COUNTRY/EDWARDS PLATEAU

CITY           SKY/WX    TMP DP  RH WIND       PRES   REMARKS
COYANOSA 2N      N/A     44  43  96 S3        29.82S
JUNCTION 1SSW    N/A     53  53  98 N1        29.82F
MERTZON 3NNE     N/A     51  49  93 S3        29.82S
SAN ANGELO 7NW   N/A     51  49  93 SE3       29.81R
STRLNG CT 4WSW   N/A     51  51  97 CALM      29.83S
ST LAWRNCE 5SW   N/A     49  49  99 SW2       29.81F
SWEETWATR 11SW   N/A     52  52  99 SE2       29.84R
WALL 1E          N/A     52  49  91 S6        29.81F
$$

TXZ055-058-074-075-080-082-041200-
TEXAS TECH WEST TEXAS MESONET/FAR WEST/SOUTHWEST MOUNTAINS/TRANS PECOS

CITY           SKY/WX    TMP DP  RH WIND       PRES   REMARKS
PRSMN GAP BBNP   N/A     53  50  90 N8        29.81F
$$


USA.gov is the U.S. government's official web portal to all federal, state and local government web resources and services.